DW6004 Fair Lawn NJ US current weather conditions

sailwx.info

Wind from 258 at 5 knots gusting 15

Air temperature 6.1° C
Dewpoint 0.9° C

Last reported at 2019-Dec-15 10:05 UTC.
Time now 2019-Dec-15 11:06 UTC

Location: N 40°55' W 074°06'.
View on Google Maps.

See reports from other nearby stations

  
Tides and Currents Weather Stations Pressure Air Temp Water Temp Dewpoint Dewpoint Depression Visibility Wind Speed Wind Dir Waves Ship Positions
date/time (UTC)wind fromknots sea level pressurealtimeterstation pressurevisibilityair tempwater tempwave heightnotes
2019-Dec-15 10:05 258 5 gusting 15 6.1
2019-Dec-15 10:00 261 6 gusting 15 6.7
2019-Dec-15 09:55 267 5 gusting 12 6.7
2019-Dec-15 09:50 262 4 gusting 10 6.1
2019-Dec-15 09:45 255 4 gusting 10 6.7
2019-Dec-15 09:40 258 4 gusting 10 6.7
2019-Dec-15 09:35 261 5 gusting 11 6.7
2019-Dec-15 09:30 265 6 gusting 11 6.7
2019-Dec-15 09:25 268 5 gusting 11 6.1
2019-Dec-15 09:20 262 3 gusting 10 6.1
2019-Dec-15 09:15 264 4 gusting 10 6.1
2019-Dec-15 09:10 266 5 gusting 10 6.1
2019-Dec-15 09:05 264 5 gusting 10 6.1
2019-Dec-15 09:00 260 4 gusting 8 6.1
2019-Dec-15 08:55 259 4 gusting 9 6.1
2019-Dec-15 08:50 257 4 gusting 10 6.1
2019-Dec-15 08:45 258 4 gusting 10 6.1
2019-Dec-15 08:40 253 5 gusting 10 6.1
2019-Dec-15 08:35 252 6 gusting 13 6.1
2019-Dec-15 08:30 260 5 gusting 13 6.1
2019-Dec-15 08:25 258 4 gusting 10 6.1
2019-Dec-15 08:20 260 5 gusting 9 6.1
2019-Dec-15 08:15 260 6 gusting 13 6.1
2019-Dec-15 08:10 258 5 gusting 13 6.1
2019-Dec-15 08:05 266 5 gusting 11 6.1
2019-Dec-15 08:00 268 6 gusting 12 6.1
2019-Dec-15 07:55 265 5 gusting 12 6.1
2019-Dec-15 07:50 268 4 gusting 11 6.1
2019-Dec-15 07:45 270 5 gusting 11 6.1
2019-Dec-15 07:40 268 5 gusting 13 6.1
2019-Dec-15 07:35 269 5 gusting 13 6.1
2019-Dec-15 07:30 271 5 gusting 10 6.1
2019-Dec-15 07:25 274 5 gusting 10 6.1
2019-Dec-15 07:20 272 3 gusting 6 6.1
2019-Dec-15 07:15 271 4 gusting 8 6.1
2019-Dec-15 07:10 278 5 gusting 11 6.1
2019-Dec-15 07:05 281 5 gusting 11 6.1
2019-Dec-15 07:00 279 5 gusting 10 6.1
2019-Dec-15 06:55 272 4 gusting 8 6.1
2019-Dec-15 06:50 275 5 gusting 11 6.1
2019-Dec-15 06:45 280 6 gusting 12 6.1
2019-Dec-15 06:40 277 6 gusting 13 6.1
2019-Dec-15 06:35 274 6 gusting 13 6.1
2019-Dec-15 06:30 271 6 gusting 12 6.1
2019-Dec-15 06:25 274 6 gusting 12 6.1
2019-Dec-15 06:20 282 6 gusting 12 6.1
2019-Dec-15 06:15 278 6 gusting 12 6.1
2019-Dec-15 06:10 275 6 gusting 13 6.1
2019-Dec-15 06:05 276 6 gusting 13 6.1
2019-Dec-15 06:00 274 6 gusting 13 6.1
2019-Dec-15 05:55 272 5 gusting 12 6.1
2019-Dec-15 05:50 277 6 gusting 13 6.1
2019-Dec-15 05:45 274 7 gusting 13 6.1
2019-Dec-15 05:40 275 6 gusting 13 6.1
2019-Dec-15 05:35 280 6 gusting 16 6.1
2019-Dec-15 05:30 274 6 gusting 16 6.7
2019-Dec-15 05:25 272 6 gusting 14 6.7
2019-Dec-15 05:20 275 6 gusting 14 6.7
2019-Dec-15 05:15 274 6 gusting 11 6.7
2019-Dec-15 05:10 273 6 gusting 13 6.7
2019-Dec-15 05:05 277 6 gusting 16 6.7
2019-Dec-15 05:00 275 6 gusting 16 6.7
2019-Dec-15 04:55 271 6 gusting 14 6.7
2019-Dec-15 04:50 277 6 gusting 14 6.7
2019-Dec-15 04:45 274 6 gusting 13 6.7
2019-Dec-15 04:40 269 6 gusting 13 6.7
2019-Dec-15 04:35 272 6 gusting 13 6.7
2019-Dec-15 04:30 276 6 gusting 13 6.7
2019-Dec-15 04:25 275 6 gusting 13 7.2
2019-Dec-15 04:20 272 6 gusting 13 7.2
2019-Dec-15 04:15 273 6 gusting 13 7.2
2019-Dec-15 04:05 270 6 gusting 15 7.2
2019-Dec-15 04:00 272 6 gusting 13 7.2
2019-Dec-15 03:55 269 6 gusting 12 7.2
2019-Dec-15 03:50 260 6 gusting 13 7.2
2019-Dec-15 03:45 260 5 gusting 13 7.8
2019-Dec-15 03:40 269 5 gusting 11 7.8
2019-Dec-15 03:35 271 6 gusting 13 7.8
2019-Dec-15 03:30 271 6 gusting 13 7.8
2019-Dec-15 03:25 273 6 gusting 11 7.8
2019-Dec-15 03:20 281 6 gusting 11 7.8
2019-Dec-15 03:15 285 6 gusting 13 7.8
2019-Dec-15 03:10 281 6 gusting 13 8.3
2019-Dec-15 03:05 271 6 gusting 13 8.3
2019-Dec-15 03:00 270 7 gusting 13 8.3
2019-Dec-15 02:55 270 7 gusting 15 8.3
2019-Dec-15 02:50 269 7 gusting 16 8.3
2019-Dec-15 02:45 268 6 gusting 16 8.3
2019-Dec-15 02:40 259 7 gusting 16 8.3
2019-Dec-15 02:35 256 7 gusting 18 8.3
2019-Dec-15 02:30 254 6 gusting 18 8.3
2019-Dec-15 02:25 254 6 gusting 17 8.3
2019-Dec-15 02:20 259 6 gusting 17 8.9
2019-Dec-15 02:15 260 6 gusting 14 8.9
2019-Dec-15 02:10 258 5 gusting 10 8.9
2019-Dec-15 02:05 254 5 gusting 10 8.9
2019-Dec-15 02:00 252 6 gusting 19 8.9
2019-Dec-15 01:55 251 7 gusting 19 8.9
2019-Dec-15 01:50 250 6 gusting 15 8.9
2019-Dec-15 01:45 250 6 gusting 16 8.9
2019-Dec-15 01:40 249 6 gusting 16 8.9
2019-Dec-15 01:35 252 6 gusting 12 9.4
2019-Dec-15 01:30 256 6 gusting 14 9.4
2019-Dec-15 01:25 251 6 gusting 14 9.4
2019-Dec-15 01:20 247 8 gusting 19 9.4
2019-Dec-15 01:15 250 10 gusting 19 9.4
2019-Dec-15 01:10 257 8 gusting 18 9.4
2019-Dec-15 01:05 254 8 gusting 18 10.0
2019-Dec-15 01:00 248 9 gusting 17 10.0
2019-Dec-15 00:55 252 9 gusting 18 10.0
2019-Dec-15 00:50 250 8 gusting 18 10.0
2019-Dec-15 00:45 247 8 gusting 18 10.0
2019-Dec-15 00:40 248 7 gusting 16 10.0
2019-Dec-15 00:35 250 6 gusting 16 10.0
2019-Dec-15 00:30 251 6 gusting 15 10.0
2019-Dec-15 00:25 249 6 gusting 15 10.0
2019-Dec-15 00:20 251 7 gusting 16 10.0
2019-Dec-15 00:15 256 8 gusting 16 10.0
2019-Dec-15 00:10 256 7 gusting 19 10.6
2019-Dec-15 00:05 253 8 gusting 19 10.6
2019-Dec-15 00:00 249 8 gusting 16 10.6
2019-Dec-14 23:55 252 8 gusting 18 10.6
2019-Dec-14 23:50 253 7 gusting 18 10.6
2019-Dec-14 23:45 252 7 gusting 15 10.6
2019-Dec-14 23:40 249 7 gusting 15 10.6
2019-Dec-14 23:35 246 6 gusting 13 11.1
2019-Dec-14 23:30 243 5 gusting 11 11.1
2019-Dec-14 23:25 238 4 gusting 11 11.1
2019-Dec-14 23:20 241 4 gusting 6 11.1
2019-Dec-14 23:15 240 5 gusting 11 11.1
2019-Dec-14 23:10 240 6 gusting 12 11.1
2019-Dec-14 23:05 236 6 gusting 14 11.1
2019-Dec-14 23:00 235 6 gusting 14 11.1
2019-Dec-14 22:55 234 5 gusting 9 11.1
2019-Dec-14 22:50 233 5 gusting 12 11.1
2019-Dec-14 22:45 234 5 gusting 12 11.1
2019-Dec-14 22:40 234 5 gusting 10 11.1
2019-Dec-14 22:35 234 5 gusting 11 11.1
2019-Dec-14 22:30 234 6 gusting 12 11.7
2019-Dec-14 22:25 236 5 gusting 12 11.7
2019-Dec-14 22:20 235 5 gusting 13 11.7
2019-Dec-14 22:15 233 6 gusting 16 11.7
2019-Dec-14 22:10 236 7 gusting 16 12.2
2019-Dec-14 22:05 241 6 gusting 16 12.2
2019-Dec-14 22:00 239 6 gusting 14 12.2
2019-Dec-14 21:55 241 6 gusting 15 12.2
2019-Dec-14 21:50 241 6 gusting 15 12.2
2019-Dec-14 21:45 231 5 gusting 12 12.8
2019-Dec-14 21:40 231 5 gusting 12 12.8
2019-Dec-14 21:35 230 5 gusting 9 12.8
2019-Dec-14 21:30 223 4 gusting 9 12.8
2019-Dec-14 21:25 224 3 gusting 8 12.2
2019-Dec-14 21:20 225 3 gusting 6 12.2
2019-Dec-14 21:10 217 3 gusting 7 12.2
2019-Dec-14 21:05 211 4 gusting 8 12.8
2019-Dec-14 21:00 205 4 gusting 8 12.8
2019-Dec-14 20:55 199 4 gusting 7 12.8
2019-Dec-14 20:50 195 4 gusting 7 12.8
2019-Dec-14 20:45 195 4 gusting 11 12.8
2019-Dec-14 20:40 192 4 gusting 11 12.8
2019-Dec-14 20:35 186 3 gusting 6 12.8
2019-Dec-14 20:30 187 3 gusting 9 12.8
2019-Dec-14 20:25 195 3 gusting 12 12.8
2019-Dec-14 20:20 202 1 gusting 12 12.2
2019-Dec-14 20:15 193 0 gusting 6 12.2
2019-Dec-14 20:10 146 11.7
2019-Dec-14 20:05 101 11.7
2019-Dec-14 20:00 102 11.7
2019-Dec-14 19:55 102 0 gusting 1 11.7
2019-Dec-14 19:50 102 11.1
2019-Dec-14 19:45 11.1
2019-Dec-14 19:40 11.1
2019-Dec-14 19:35 11.1
2019-Dec-14 19:30 11.1
2019-Dec-14 19:25 11.1
2019-Dec-14 19:20 11.1
2019-Dec-14 19:15 11.1
2019-Dec-14 19:10 052 0 gusting 2 11.1
2019-Dec-14 19:05 058 0 gusting 2 11.1
2019-Dec-14 19:00 066 0 gusting 3 11.1
2019-Dec-14 18:55 090 0 gusting 3 11.1
2019-Dec-14 18:50 111 0 gusting 3 11.1
2019-Dec-14 18:45 112 0 gusting 3 11.1
2019-Dec-14 18:40 097 1 gusting 5 11.1
2019-Dec-14 18:35 092 0 gusting 5 11.1
2019-Dec-14 18:30 107 11.1
2019-Dec-14 18:25 104 11.1
2019-Dec-14 18:20 108 11.1
2019-Dec-14 18:15 065 11.1
2019-Dec-14 18:10 039 0 gusting 3 11.7
2019-Dec-14 18:05 040 11.1
2019-Dec-14 18:00 070 0 gusting 3 11.1
2019-Dec-14 17:55 067 2 gusting 6 11.1
2019-Dec-14 17:50 072 2 gusting 6 11.1
2019-Dec-14 17:45 065 2 gusting 6 11.1
2019-Dec-14 17:40 049 1 gusting 5 11.1
2019-Dec-14 17:35 047 1 gusting 4 11.1
2019-Dec-14 17:30 054 2 gusting 6 11.1
2019-Dec-14 17:25 058 1 gusting 6 11.1
2019-Dec-14 17:20 060 1 gusting 6 11.1
2019-Dec-14 17:15 063 2 gusting 6 11.1
2019-Dec-14 17:10 050 2 gusting 4 11.1
2019-Dec-14 17:05 040 1 gusting 5 11.1
2019-Dec-14 17:00 040 1 gusting 5 11.1
2019-Dec-14 16:55 019 1 gusting 4 11.1
2019-Dec-14 16:50 005 0 gusting 4 11.1
2019-Dec-14 16:45 10.6
2019-Dec-14 16:40 037 10.6
2019-Dec-14 16:35 042 0 gusting 4 10.6
2019-Dec-14 16:30 041 2 gusting 5 10.6
2019-Dec-14 16:25 051 1 gusting 5 10.6
2019-Dec-14 16:20 045 0 gusting 4 10.6
2019-Dec-14 16:15 029 1 gusting 4 10.6
2019-Dec-14 16:10 041 0 gusting 4 10.6
2019-Dec-14 16:05 005 0 gusting 3 10.6
2019-Dec-14 16:00 359 1 gusting 3 10.6
2019-Dec-14 15:55 355 0 gusting 3 10.6
2019-Dec-14 15:50 355 10.6
2019-Dec-14 15:45 355 10.0
2019-Dec-14 15:40 355 10.0
2019-Dec-14 15:35 003 0 gusting 2 10.0
2019-Dec-14 15:30 007 10.0
2019-Dec-14 15:25 10.0
2019-Dec-14 15:20 10.0
2019-Dec-14 15:15 10.0
2019-Dec-14 15:10 10.0
2019-Dec-14 15:05 10.0
2019-Dec-14 15:00 10.0
2019-Dec-14 14:55 10.0
2019-Dec-14 14:50 292 9.4
2019-Dec-14 14:45 291 9.4
2019-Dec-14 14:40 290 9.4
2019-Dec-14 14:35 290 9.4
2019-Dec-14 14:30 291 0 gusting 3 9.4
2019-Dec-14 14:25 292 0 gusting 4 9.4
2019-Dec-14 14:20 294 9.4
2019-Dec-14 14:15 354 0 gusting 3 9.4
2019-Dec-14 14:10 354 0 gusting 3 9.4
2019-Dec-14 14:05 359 9.4
2019-Dec-14 14:00 005 0 gusting 3 9.4
2019-Dec-14 13:55 004 1 gusting 4 9.4
2019-Dec-14 13:50 008 2 gusting 5 9.4
2019-Dec-14 13:45 011 2 gusting 5 9.4
2019-Dec-14 13:40 006 1 gusting 4 9.4
2019-Dec-14 13:35 341 0 gusting 3 9.4
2019-Dec-14 13:30 319 9.4
2019-Dec-14 13:25 313 9.4
2019-Dec-14 13:20 313 9.4
2019-Dec-14 13:15 9.4
2019-Dec-14 13:10 9.4
2019-Dec-14 13:05 310 9.4
2019-Dec-14 13:00 310 9.4
2019-Dec-14 12:55 9.4
2019-Dec-14 12:50 310 0 gusting 2 9.4
2019-Dec-14 12:45 307 0 gusting 2 9.4
2019-Dec-14 12:40 305 0 gusting 3 9.4
2019-Dec-14 12:35 304 0 gusting 3 9.4
2019-Dec-14 12:30 298 9.4
2019-Dec-14 12:25 297 9.4
2019-Dec-14 12:20 297 9.4
2019-Dec-14 12:15 9.4
2019-Dec-14 12:10 9.4
2019-Dec-14 12:05 355 9.4
2019-Dec-14 12:00 082 0 gusting 4 9.4
2019-Dec-14 11:55 071 1 gusting 5 9.4
2019-Dec-14 11:50 040 2 gusting 5 9.4
2019-Dec-14 11:45 004 2 gusting 4 9.4
2019-Dec-14 11:40 355 2 gusting 5 9.4
2019-Dec-14 11:35 353 2 gusting 5 9.4
2019-Dec-14 11:30 349 2 gusting 5 8.9
2019-Dec-14 11:25 339 2 gusting 5 8.9
2019-Dec-14 11:20 339 2 gusting 5 8.9
2019-Dec-14 10:55 357 2 gusting 5 8.9
2019-Dec-14 10:50 021 2 gusting 5 8.9
2019-Dec-14 10:45 045 2 gusting 9 8.9
2019-Dec-14 10:40 051 3 gusting 9 8.9
2019-Dec-14 10:35 053 3 gusting 8 8.9
2019-Dec-14 10:30 052 4 gusting 9 8.9
2019-Dec-14 10:25 052 3 gusting 9 8.9
2019-Dec-14 10:20 052 3 gusting 8 8.9
2019-Dec-14 10:15 051 3 gusting 7 8.9
2019-Dec-14 10:10 041 3 gusting 7 8.9
2019-Dec-14 10:05 032 2 gusting 6 8.9
2019-Dec-14 10:00 023 2 gusting 6 8.9
2019-Dec-14 09:55 024 3 gusting 6 8.9
2019-Dec-14 09:50 027 3 gusting 8 8.9
2019-Dec-14 09:45 023 3 gusting 8 8.9
2019-Dec-14 09:40 020 2 gusting 6 8.9
2019-Dec-14 09:35 034 3 gusting 6 8.9
2019-Dec-14 09:30 035 3 gusting 10 8.9
2019-Dec-14 09:25 028 3 gusting 10 8.9
2019-Dec-14 09:20 020 2 gusting 7 8.9
2019-Dec-14 09:05 021 3 gusting 6 8.9
2019-Dec-14 09:00 027 3 gusting 7 8.9
2019-Dec-14 08:55 028 3 gusting 7 8.9
2019-Dec-14 08:50 023 2 gusting 7 8.9
2019-Dec-14 08:45 028 3 gusting 7 8.9
2019-Dec-14 08:40 029 3 gusting 7 8.9
2019-Dec-14 08:35 027 3 gusting 7 8.9
2019-Dec-14 08:30 023 3 gusting 9 8.9
2019-Dec-14 08:25 026 4 gusting 9 8.9
2019-Dec-14 08:20 032 4 gusting 8 8.9
2019-Dec-14 08:15 029 5 gusting 8 8.9
2019-Dec-14 08:10 027 4 gusting 8 8.9
2019-Dec-14 08:05 033 4 gusting 11 8.9
2019-Dec-14 08:00 033 4 gusting 11 8.9
2019-Dec-14 07:55 031 4 gusting 10 8.9
2019-Dec-14 07:50 034 4 gusting 10 8.9
2019-Dec-14 07:45 029 5 gusting 8 8.9
2019-Dec-14 07:40 021 5 gusting 8 8.9
2019-Dec-14 07:35 017 5 gusting 8 8.9
2019-Dec-14 07:30 013 4 gusting 7 8.9
2019-Dec-14 07:25 014 3 gusting 6 8.9
2019-Dec-14 07:20 023 4 gusting 7 8.9
2019-Dec-14 07:15 025 4 gusting 7 8.9
2019-Dec-14 07:10 022 3 gusting 7 8.9
2019-Dec-14 07:05 016 2 gusting 7 8.9
2019-Dec-14 07:00 011 3 gusting 7 8.9
2019-Dec-14 06:55 012 3 gusting 7 8.9
2019-Dec-14 06:50 008 3 gusting 6 8.9
2019-Dec-14 06:45 013 3 gusting 7 8.9
2019-Dec-14 06:40 015 2 gusting 7 8.9
2019-Dec-14 06:35 010 2 gusting 5 8.9
2019-Dec-14 06:30 013 2 gusting 6 8.9
2019-Dec-14 06:25 015 3 gusting 6 8.9
2019-Dec-14 06:20 013 3 gusting 6 8.9
2019-Dec-14 06:15 019 3 gusting 6 8.9
2019-Dec-14 06:10 021 3 gusting 6 8.9
2019-Dec-14 06:05 020 4 gusting 8 8.9
2019-Dec-14 06:00 024 4 gusting 8 8.9
2019-Dec-14 05:55 022 3 gusting 6 8.9
2019-Dec-14 05:50 018 3 gusting 6 8.9
2019-Dec-14 05:45 021 2 gusting 6 8.9
2019-Dec-14 05:40 012 2 gusting 6 8.9
2019-Dec-14 05:35 008 3 gusting 6 8.9
2019-Dec-14 05:30 020 3 gusting 8 8.9
2019-Dec-14 05:25 033 3 gusting 8 8.3
2019-Dec-14 05:20 027 3 gusting 7 8.3
2019-Dec-14 05:15 024 3 gusting 7 8.3
2019-Dec-14 05:10 027 2 gusting 7 8.3
2019-Dec-14 05:05 031 3 gusting 7 8.3
2019-Dec-14 05:00 034 3 gusting 6 8.3
2019-Dec-14 04:55 033 3 gusting 6 8.3
2019-Dec-14 04:50 032 3 gusting 6 8.3
2019-Dec-14 04:45 024 2 gusting 6 8.3
2019-Dec-14 04:40 024 2 gusting 6 8.3
2019-Dec-14 04:35 028 3 gusting 6 7.8
2019-Dec-14 04:30 029 3 gusting 6 7.8
2019-Dec-14 04:25 027 2 gusting 6 7.8
2019-Dec-14 04:20 020 2 gusting 6 7.8
2019-Dec-14 04:15 019 2 gusting 5 7.8
2019-Dec-14 04:10 026 2 gusting 6 7.8
2019-Dec-14 04:05 031 3 gusting 6 7.8
2019-Dec-14 04:00 025 2 gusting 5 7.8
2019-Dec-14 03:55 019 2 gusting 5 7.8
2019-Dec-14 03:50 019 2 gusting 5 7.8
2019-Dec-14 03:45 018 2 gusting 5 7.8
2019-Dec-14 03:40 013 2 gusting 5 7.2
2019-Dec-14 03:35 001 1 gusting 4 7.2
2019-Dec-14 03:30 009 2 gusting 4 7.2
2019-Dec-14 03:25 013 2 gusting 4 7.2
2019-Dec-14 03:20 013 2 gusting 6 7.2
2019-Dec-14 03:15 025 2 gusting 6 7.2
2019-Dec-14 03:10 024 2 gusting 6 7.2
2019-Dec-14 03:05 018 2 gusting 6 7.2
2019-Dec-14 03:00 021 2 gusting 5 7.2
2019-Dec-14 02:55 014 2 gusting 5 7.2
2019-Dec-14 02:50 011 2 gusting 5 7.2
2019-Dec-14 02:45 013 1 gusting 4 7.2
2019-Dec-14 02:40 007 2 gusting 4 7.2
2019-Dec-14 02:35 008 1 gusting 4 6.7
2019-Dec-14 02:30 009 1 gusting 5 6.7
2019-Dec-14 02:25 009 1 gusting 5 6.7
2019-Dec-14 02:20 011 1 gusting 4 6.7
2019-Dec-14 02:15 010 1 gusting 4 6.7
2019-Dec-14 02:10 021 1 gusting 4 6.7
2019-Dec-14 02:05 020 2 gusting 5 6.7
2019-Dec-14 02:00 014 2 gusting 6 6.7
2019-Dec-14 01:55 018 2 gusting 6 6.7
2019-Dec-14 01:50 021 1 gusting 6 6.7
2019-Dec-14 01:45 022 1 gusting 4 6.7
2019-Dec-14 01:40 020 2 gusting 4 6.7
2019-Dec-14 01:35 011 2 gusting 6 6.7
2019-Dec-14 01:30 008 2 gusting 6 6.7
2019-Dec-14 01:25 008 2 gusting 6 6.7
2019-Dec-14 01:20 011 2 gusting 6 6.7
2019-Dec-14 01:15 019 2 gusting 5 6.1
2019-Dec-14 01:10 023 1 gusting 4 6.1
2019-Dec-14 01:05 025 1 gusting 4 6.1
2019-Dec-14 01:00 024 1 gusting 4 6.1
2019-Dec-14 00:55 018 1 gusting 4 6.1
2019-Dec-14 00:50 016 0 gusting 3 6.1
2019-Dec-14 00:45 030 6.1
2019-Dec-14 00:40 023 0 gusting 4 6.1
2019-Dec-14 00:35 024 1 gusting 4 6.1
2019-Dec-14 00:30 023 1 gusting 4 6.1
2019-Dec-14 00:25 022 1 gusting 6 6.1
2019-Dec-14 00:20 034 2 gusting 6 6.1
2019-Dec-14 00:15 047 2 gusting 6 5.6
2019-Dec-14 00:10 044 2 gusting 6 5.6
2019-Dec-14 00:05 021 2 gusting 4 5.6
2019-Dec-14 00:00 006 1 gusting 4 5.6
2019-Dec-13 23:55 010 1 gusting 3 5.6
2019-Dec-13 23:50 023 1 gusting 4 5.6
2019-Dec-13 23:45 026 0 gusting 4 5.6
2019-Dec-13 23:40 015 0 gusting 3 5.6
2019-Dec-13 23:35 016 0 gusting 3 5.6
2019-Dec-13 23:30 019 0 gusting 3 5.6
2019-Dec-13 23:25 355 5.6
2019-Dec-13 23:20 350 5.6
2019-Dec-13 23:15 350 0 gusting 2 5.6
2019-Dec-13 23:10 349 5.6
2019-Dec-13 23:05 359 0 gusting 3 5.6
2019-Dec-13 23:00 007 0 gusting 3 5.6
2019-Dec-13 22:55 044 5.6
2019-Dec-13 22:50 044 5.6
2019-Dec-13 22:45 5.6
2019-Dec-13 22:40 022 5.6
2019-Dec-13 22:35 026 0 gusting 2 5.6
2019-Dec-13 22:30 034 1 gusting 3 5.0
2019-Dec-13 22:25 043 1 gusting 3 5.0
2019-Dec-13 22:20 048 0 gusting 5 5.0
2019-Dec-13 22:15 035 0 gusting 5 5.0
2019-Dec-13 22:10 036 2 gusting 6 5.6
2019-Dec-13 22:05 041 2 gusting 6 5.6
2019-Dec-13 22:00 046 1 gusting 6 5.6
2019-Dec-13 21:55 038 1 gusting 4 5.6
2019-Dec-13 21:50 026 1 gusting 4 5.6
2019-Dec-13 21:45 035 2 gusting 6 5.6
2019-Dec-13 21:40 040 2 gusting 6 5.6
2019-Dec-13 21:35 047 3 gusting 7 5.6
2019-Dec-13 21:30 051 3 gusting 7 5.6
2019-Dec-13 21:25 052 1 gusting 6 5.6
2019-Dec-13 21:20 054 0 gusting 4 5.6
2019-Dec-13 21:15 5.6
2019-Dec-13 21:10 5.6
2019-Dec-13 21:05 5.6
2019-Dec-13 21:00 5.6
2019-Dec-13 20:55 5.6
2019-Dec-13 20:50 006 5.6
2019-Dec-13 20:45 006 0 gusting 3 5.6
2019-Dec-13 20:40 006 0 gusting 3 5.6
2019-Dec-13 20:35 008 0 gusting 4 5.6
2019-Dec-13 20:30 012 5.6
2019-Dec-13 20:25 5.6
2019-Dec-13 20:20 5.6
2019-Dec-13 20:15 350 5.6
2019-Dec-13 20:10 359 0 gusting 3 5.6
2019-Dec-13 20:05 003 0 gusting 4 5.6
2019-Dec-13 20:00 002 0 gusting 4 5.6
2019-Dec-13 19:55 350 5.6
2019-Dec-13 19:50 5.6
2019-Dec-13 19:45 001 5.6
2019-Dec-13 19:40 001 5.6
2019-Dec-13 19:35 5.6
2019-Dec-13 19:30 5.6
2019-Dec-13 19:25 5.6
2019-Dec-13 19:20 5.6
2019-Dec-13 19:15 5.6
2019-Dec-13 19:10 5.6
2019-Dec-13 19:05 5.6
2019-Dec-13 19:00 5.6
2019-Dec-13 18:55 5.6
2019-Dec-13 18:50 5.0
2019-Dec-13 18:45 5.0
2019-Dec-13 18:40 5.0
2019-Dec-13 18:35 5.0
2019-Dec-13 18:30 5.0
2019-Dec-13 18:25 5.0
2019-Dec-13 18:20 5.0
2019-Dec-13 18:15 5.0
2019-Dec-13 18:10 5.0
2019-Dec-13 18:05 4.4
2019-Dec-13 18:00 4.4
2019-Dec-13 17:55 4.4
2019-Dec-13 17:50 337 4.4
2019-Dec-13 17:45 011 0 gusting 3 4.4
2019-Dec-13 17:40 016 1 gusting 4 4.4
2019-Dec-13 17:35 013 1 gusting 4 4.4
2019-Dec-13 17:30 015 0 gusting 4 4.4
2019-Dec-13 17:25 024 0 gusting 3 4.4
2019-Dec-13 17:20 028 3.9
2019-Dec-13 17:15 002 0 gusting 3 3.9
2019-Dec-13 17:10 359 0 gusting 3 3.9
2019-Dec-13 17:05 355 3.9
2019-Dec-13 17:00 3.9
2019-Dec-13 16:55 3.9
2019-Dec-13 16:50 3.9
2019-Dec-13 16:45 3.9
2019-Dec-13 16:40 3.3
2019-Dec-13 16:35 3.3
2019-Dec-13 16:30 3.3
2019-Dec-13 16:25 3.3
2019-Dec-13 16:20 3.3
2019-Dec-13 16:15 3.3
2019-Dec-13 16:10 3.3
2019-Dec-13 16:05 3.3
2019-Dec-13 16:00 3.3
2019-Dec-13 15:55 3.3
2019-Dec-13 15:50 123 3.3
2019-Dec-13 15:45 099 0 gusting 3 2.8
2019-Dec-13 15:40 104 0 gusting 6 2.8
2019-Dec-13 15:35 112 0 gusting 6 2.8
2019-Dec-13 15:30 2.8
2019-Dec-13 15:25 2.2
2019-Dec-13 15:20 2.2
2019-Dec-13 15:15 054 2.2
2019-Dec-13 15:10 062 0 gusting 5 2.2
2019-Dec-13 15:05 063 1 gusting 5 2.2
2019-Dec-13 15:00 056 1 gusting 4 1.7
2019-Dec-13 14:55 056 1 gusting 5 1.7
2019-Dec-13 14:50 063 1 gusting 5 1.7
2019-Dec-13 14:45 051 0 gusting 4 1.7
2019-Dec-13 14:40 042 0 gusting 4 1.7
2019-Dec-13 14:35 1.7
2019-Dec-13 14:30 1.7
2019-Dec-13 14:25 1.1
2019-Dec-13 14:20 1.1
2019-Dec-13 14:15 1.1
2019-Dec-13 14:10 1.1
2019-Dec-13 14:05 1.1
2019-Dec-13 14:00 0.6
2019-Dec-13 13:55 0.6
2019-Dec-13 13:50 0.6
2019-Dec-13 13:45 304 0.6
2019-Dec-13 13:40 344 0 gusting 3 0.6
2019-Dec-13 13:35 352 0 gusting 3 -0.0
2019-Dec-13 13:30 009 -0.0
2019-Dec-13 13:25 008 1 gusting 4 -0.0
2019-Dec-13 13:20 005 1 gusting 4 -0.0
2019-Dec-13 13:15 003 0 gusting 3 -0.0
2019-Dec-13 13:10 006 -0.6
2019-Dec-13 13:05 003 -0.6
2019-Dec-13 13:00 -0.6
2019-Dec-13 12:55 -1.1
2019-Dec-13 12:50 -1.1
2019-Dec-13 12:45 -1.1
2019-Dec-13 12:40 -1.1
2019-Dec-13 12:35 -1.7
2019-Dec-13 12:30 -1.7
2019-Dec-13 12:25 -1.7
2019-Dec-13 12:20 -1.7
2019-Dec-13 12:15 -1.7
2019-Dec-13 12:10 -1.7
2019-Dec-13 12:05 -1.1
2019-Dec-13 12:00 -1.1
2019-Dec-13 11:55 -1.1
2019-Dec-13 11:50 -1.7
2019-Dec-13 11:45 -1.7
2019-Dec-13 11:40 -1.7
2019-Dec-13 11:35 -1.7
2019-Dec-13 11:30 -1.7
2019-Dec-13 11:25 -1.7
2019-Dec-13 11:20 -1.7
2019-Dec-13 11:15 -1.7
2019-Dec-13 11:10 -1.7
2019-Dec-13 11:05 -1.7
2019-Dec-13 11:00 -1.7